Torna al catalogo

CZ-6A DEB

AttivoSSO
NORAD 54515·DEBRIS·🇨🇳 China

Lanciato Nov 11, 2022 da Taiyuan Satellite Launch Center

Loading…

Prossimi Passaggi (prossime 24 ore)

TLE

AggiornatoSource: Space-Track

Epoca: Sep 14, 2026, 19:54 UTC

1 54515U 22151JT  26257.82927453  .00000257  00000-0  92246-4 0  9994
2 54515  98.5574 282.1389 0119335  93.6850 267.7992 14.38013625201206

Traccia CZ-6A DEB in tempo reale con AllMySat

Download on the App Store